QPF
0.02 0.02 0.02 0.02 0.02 0.03 0.03 0.04 0.04 0.03 0.04 0.03 0.03 0.03 0.04 0.04 0.03 0.03 0.03 0.02 0.02 0.03 0.04 0.05 0.05 0.05 0.06 0.05 0.02 0.02 0.02 0.03 0.04 0.03 0.03 0.03 0.04 0.03 0.03 0.02 0.02 0.01 0.01
0.02 0.02 0.02 0.02 0.02 0.03 0.03 0.02 0.03 0.04 0.04 0.05 0.06 0.04 0.05 0.03 0.02 0.02 0.02 0.02 0.02 0.02 0.03 0.05 0.05 0.05 0.06 0.07 0.05 0.04 0.04 0.04 0.04 0.04 0.04 0.04 0.04 0.04 0.03 0.03 0.02 0.01 0.01
0.03 0.03 0.03 0.03 0.03 0.04 0.04 0.04 0.04 0.03 0.04 0.05 0.08 0.06 0.05 0.06 0.05 0.03 0.02 0.04 0.03 0.02 0.02 0.03 0.03 0.04 0.04 0.07 0.07 0.05 0.04 0.04 0.04 0.04 0.04 0.04 0.04 0.04 0.03 0.02 0.02 0.01 0.01
0.04 0.05 0.04 0.03 0.03 0.03 0.03 0.05 0.04 0.05 0.07 0.09 0.11 0.09 0.07 0.08 0.07 0.04 0.03 0.03 0.05 0.05 0.05 0.03 0.03 0.03 0.02 0.04 0.06 0.06 0.04 0.04 0.03 0.03 0.04 0.03 0.03 0.04 0.04 0.05 0.04 0.03 0.02
0.04 0.04 0.03 0.04 0.03 0.02 0.02 0.02 0.04 0.07 0.10 0.10 0.08 0.08 0.07 0.07 0.07 0.04 0.03 0.03 0.05 0.05 0.06 0.03 0.02 0.03 0.03 0.03 0.05 0.05 0.04 0.04 0.03 0.02 0.03 0.03 0.03 0.03 0.03 0.03 0.04 0.03 0.03
0.04 0.03 0.03 0.04 0.03 0.04 0.05 0.05 0.07 0.09 0.10 0.09 0.05 0.05 0.05 0.04 0.04 0.05 0.04 0.03 0.04 0.03 0.04 0.04 0.05 0.04 0.03 0.04 0.04 0.04 0.04 0.04 0.04 0.03 0.03 0.03 0.04 0.03 0.02 0.03 0.03 0.02 0.02
0.07 0.05 0.05 0.06 0.05 0.06 0.08 0.07 0.07 0.07 0.07 0.07 0.08 0.07 0.05 0.02 0.03 0.03 0.02 0.03 0.03 0.04 0.04 0.05 0.07 0.06 0.04 0.02 0.02 0.03 0.04 0.04 0.03 0.03 0.03 0.03 0.04 0.03 0.02 0.02 0.02 0.02 0.02
0.08 0.07 0.07 0.06 0.06 0.09 0.08 0.07 0.08 0.08 0.05 0.05 0.07 0.08 0.06 0.06 0.04 0.02 0.03 0.03 0.03 0.03 0.03 0.03 0.05 0.06 0.05 0.05 0.02 0.02 0.03 0.04 0.04 0.04 0.03 0.02 0.02 0.02 0.02 0.02 0.02 0.02 0.01
0.07 0.06 0.06 0.06 0.08 0.06 0.06 0.08 0.09 0.11 0.08 0.05 0.05 0.06 0.06 0.05 0.04 0.03 0.03 0.03 0.03 0.04 0.04 0.03 0.03 0.02 0.03 0.04 0.04 0.02 0.01 0.01 0.02 0.04 0.04 0.03 0.02 0.01 0.01 0.01 0.02 0.02 0.01
0.07 0.06 0.07 0.06 0.07 0.06 0.08 0.07 0.07 0.08 0.09 0.08 0.06 0.04 0.03 0.04 0.04 0.04 0.02 0.02 0.02 0.03 0.03 0.02 0.02 0.02 0.02 0.02 0.03 0.01 0.00 0.00 0.01 0.02 0.02 0.02 0.02 0.01 0.01 0.01 0.02 0.03 0.02
0.07 0.06 0.06 0.07 0.06 0.05 0.07 0.07 0.08 0.06 0.05 0.07 0.06 0.04 0.04 0.04 0.03 0.04 0.04 0.03 0.02 0.02 0.02 0.03 0.02 0.02 0.01 0.01 0.02 0.01 0.00 0.00 0.00 0.00 0.01 0.01 0.01 0.01 0.01 0.01 0.01 0.02 0.02
0.06 0.05 0.05 0.06 0.05 0.04 0.06 0.06 0.06 0.06 0.05 0.05 0.05 0.03 0.03 0.04 0.03 0.03 0.03 0.03 0.03 0.02 0.01 0.01 0.02 0.02 0.01 0.01 0.01 0.00 0.00 0.00 0.00 0.00 0.00 0.01 0.00 0.01 0.01 0.01 0.01 0.02 0.02
0.04 0.05 0.04 0.05 0.04 0.04 0.04 0.04 0.04 0.04 0.04 0.04 0.03 0.02 0.02 0.02 0.02 0.01 0.02 0.02 0.02 0.01 0.01 0.01 0.01 0.02 0.01 0.02 0.02 0.00 0.00 0.00 0.00 0.00 0.00 0.00 0.00 0.00 0.01 0.01 0.01 0.02 0.02
0.04 0.04 0.05 0.05 0.04 0.03 0.04 0.04 0.04 0.04 0.04 0.04 0.02 0.02 0.02 0.01 0.00 0.01 0.01 0.02 0.01 0.01 0.01 0.01 0.01 0.02 0.02 0.02 0.02 0.01 0.01 0.00 0.00 0.00 0.00 0.00 0.00 0.00 0.00 0.00 0.00 0.01 0.01
0.04 0.04 0.04 0.05 0.04 0.03 0.03 0.05 0.04 0.04 0.03 0.03 0.02 0.02 0.02 0.01 0.01 0.01 0.00 0.01 0.01 0.01 0.01 0.01 0.01 0.01 0.01 0.01 0.01 0.01 0.02 0.01 0.00 0.00 0.00 0.00 0.00 0.00 0.00 0.00 0.00 0.00 0.00
0.04 0.04 0.04 0.04 0.05 0.04 0.04 0.04 0.04 0.03 0.03 0.02 0.02 0.02 0.02 0.01 0.01 0.01 0.01 0.01 0.01 0.01 0.01 0.01 0.01 0.00 0.00 0.00 0.00 0.01 0.01 0.00 0.00 0.00 0.00 0.00 0.00 0.00 0.00 0.00 0.00 0.00 0.00
0.05 0.04 0.06 0.06 0.05 0.05 0.05 0.04 0.03 0.03 0.02 0.02 0.01 0.02 0.02 0.02 0.01 0.01 0.01 0.01 0.01 0.01 0.01 0.01 0.00 0.00 0.00 0.00 0.00 0.00 0.00 0.00 0.00 0.00 0.00 0.00 0.00 0.00 0.00 0.00 0.00 0.00 0.00
0.05 0.04 0.05 0.05 0.05 0.05 0.05 0.05 0.04 0.03 0.02 0.02 0.02 0.02 0.03 0.02 0.01 0.01 0.00 0.00 0.00 0.01 0.01 0.01 0.00 0.00 0.00 0.00 0.00 0.00 0.00 0.00 0.00 0.00 0.00 0.00 0.00 0.00 0.00 0.00 0.00 0.00 0.00
0.05 0.04 0.04 0.05 0.04 0.04 0.05 0.05 0.05 0.04 0.03 0.02 0.02 0.02 0.02 0.02 0.01 0.01 0.01 0.00 0.00 0.00 0.01 0.01 0.00 0.01 0.00 0.00 0.00 0.00 0.00 0.00 0.00 0.00 0.00 0.00 0.00 0.00 0.00 0.00 0.00 0.00 0.00
0.07 0.05 0.04 0.04 0.05 0.05 0.06 0.05 0.05 0.05 0.04 0.03 0.02 0.02 0.02 0.02 0.02 0.02 0.01 0.01 0.01 0.00 0.00 0.00 0.01 0.01 0.01 0.01 0.01 0.01 0.01 0.01 0.01 0.00 0.00 0.00 0.00 0.00 0.00 0.00 0.00 0.00 0.00
0.06 0.07 0.06 0.05 0.05 0.06 0.05 0.05 0.04 0.05 0.05 0.05 0.04 0.04 0.03 0.03 0.02 0.02 0.01 0.01 0.01 0.01 0.01 0.01 0.02 0.02 0.02 0.02 0.02 0.02 0.02 0.01 0.01 0.00 0.00 0.00 0.00 0.00 0.01 0.00 0.00 0.00 0.00
0.06 0.07 0.08 0.07 0.06 0.05 0.05 0.06 0.07 0.08 0.08 0.08 0.07 0.06 0.05 0.04 0.03 0.02 0.01 0.01 0.01 0.02 0.02 0.03 0.03 0.03 0.04 0.03 0.03 0.03 0.02 0.02 0.01 0.01 0.01 0.00 0.00 0.01 0.01 0.00 0.00 0.00 0.00
0.05 0.07 0.10 0.11 0.11 0.11 0.11 0.10 0.11 0.10 0.09 0.08 0.07 0.07 0.06 0.04 0.03 0.02 0.02 0.02 0.02 0.02 0.02 0.02 0.02 0.03 0.04 0.03 0.03 0.02 0.03 0.03 0.02 0.02 0.01 0.01 0.00 0.01 0.00 0.00 0.00 0.00 0.00
0.04 0.05 0.08 0.10 0.12 0.11 0.10 0.10 0.10 0.09 0.09 0.09 0.08 0.08 0.07 0.05 0.04 0.03 0.03 0.02 0.02 0.02 0.02 0.01 0.02 0.02 0.02 0.02 0.02 0.02 0.02 0.02 0.02 0.02 0.02 0.01 0.01 0.01 0.01 0.01 0.00 0.00 0.00
0.04 0.04 0.06 0.08 0.10 0.09 0.08 0.08 0.09 0.09 0.10 0.09 0.07 0.06 0.05 0.04 0.04 0.03 0.03 0.03 0.03 0.03 0.02 0.01 0.01 0.01 0.01 0.01 0.01 0.01 0.01 0.01 0.01 0.02 0.02 0.02 0.01 0.02 0.01 0.01 0.00 0.00 0.00
0.05 0.05 0.05 0.06 0.06 0.07 0.07 0.07 0.06 0.06 0.08 0.09 0.09 0.09 0.07 0.06 0.05 0.04 0.03 0.04 0.04 0.03 0.03 0.03 0.03 0.02 0.02 0.01 0.01 0.01 0.01 0.02 0.02 0.02 0.02 0.02 0.01 0.01 0.01 0.00 0.00 0.00 0.00
MSLP
1016.12 1016.30 1016.42 1016.50 1016.56 1016.62 1016.70 1016.81 1016.93 1017.06 1017.16 1017.24 1017.30 1017.36 1017.45 1017.59 1017.82 1018.15 1018.55 1018.99 1019.44 1019.84 1020.16 1020.39 1020.51 1020.57 1020.58 1020.61 1020.67 1020.79 1020.97 1021.20 1021.45 1021.70 1021.93 1022.12 1022.27 1022.39 1022.50 1022.60 1022.72 1022.86 1023.01
1016.20 1016.38 1016.51 1016.59 1016.66 1016.73 1016.83 1016.96 1017.12 1017.28 1017.43 1017.55 1017.65 1017.74 1017.83 1017.96 1018.14 1018.40 1018.73 1019.11 1019.50 1019.87 1020.19 1020.43 1020.59 1020.68 1020.74 1020.79 1020.86 1020.98 1021.14 1021.35 1021.58 1021.81 1022.03 1022.22 1022.38 1022.51 1022.62 1022.74 1022.86 1022.99 1023.13
1016.28 1016.47 1016.62 1016.73 1016.82 1016.92 1017.04 1017.19 1017.38 1017.57 1017.76 1017.92 1018.05 1018.14 1018.22 1018.32 1018.44 1018.61 1018.85 1019.13 1019.45 1019.77 1020.06 1020.31 1020.50 1020.64 1020.75 1020.84 1020.94 1021.06 1021.22 1021.41 1021.63 1021.85 1022.06 1022.26 1022.44 1022.59 1022.73 1022.86 1022.99 1023.13 1023.27
1016.32 1016.55 1016.74 1016.88 1017.01 1017.13 1017.28 1017.46 1017.66 1017.88 1018.09 1018.28 1018.42 1018.52 1018.58 1018.63 1018.68 1018.76 1018.89 1019.07 1019.30 1019.55 1019.82 1020.06 1020.28 1020.47 1020.62 1020.76 1020.90 1021.04 1021.20 1021.39 1021.59 1021.81 1022.03 1022.24 1022.43 1022.62 1022.79 1022.95 1023.10 1023.25 1023.39
1016.32 1016.59 1016.82 1017.02 1017.18 1017.34 1017.51 1017.71 1017.92 1018.15 1018.37 1018.57 1018.72 1018.82 1018.86 1018.86 1018.85 1018.85 1018.89 1018.97 1019.11 1019.29 1019.51 1019.74 1019.98 1020.19 1020.39 1020.58 1020.75 1020.92 1021.10 1021.29 1021.49 1021.70 1021.92 1022.14 1022.36 1022.57 1022.77 1022.95 1023.13 1023.29 1023.43
1016.26 1016.58 1016.86 1017.11 1017.32 1017.51 1017.70 1017.89 1018.11 1018.33 1018.55 1018.75 1018.90 1019.00 1019.04 1019.02 1018.97 1018.91 1018.87 1018.87 1018.93 1019.04 1019.21 1019.41 1019.64 1019.88 1020.11 1020.33 1020.54 1020.74 1020.94 1021.13 1021.34 1021.55 1021.77 1021.99 1022.21 1022.43 1022.65 1022.85 1023.03 1023.19 1023.34
1016.15 1016.52 1016.85 1017.15 1017.39 1017.61 1017.80 1018.00 1018.20 1018.41 1018.62 1018.81 1018.97 1019.08 1019.12 1019.11 1019.05 1018.96 1018.87 1018.81 1018.80 1018.85 1018.96 1019.13 1019.34 1019.58 1019.83 1020.07 1020.31 1020.53 1020.75 1020.95 1021.16 1021.37 1021.58 1021.79 1022.00 1022.22 1022.42 1022.61 1022.79 1022.94 1023.08
1016.02 1016.43 1016.80 1017.13 1017.41 1017.64 1017.84 1018.02 1018.20 1018.39 1018.59 1018.77 1018.94 1019.07 1019.14 1019.14 1019.10 1019.01 1018.90 1018.81 1018.75 1018.74 1018.80 1018.92 1019.09 1019.31 1019.56 1019.82 1020.07 1020.32 1020.55 1020.77 1020.98 1021.18 1021.37 1021.56 1021.74 1021.92 1022.10 1022.26 1022.41 1022.54 1022.66
1015.89 1016.31 1016.71 1017.07 1017.38 1017.62 1017.82 1017.99 1018.15 1018.32 1018.50 1018.68 1018.85 1019.00 1019.10 1019.15 1019.13 1019.07 1018.97 1018.86 1018.76 1018.71 1018.71 1018.77 1018.90 1019.09 1019.31 1019.57 1019.83 1020.09 1020.34 1020.58 1020.79 1020.98 1021.16 1021.31 1021.46 1021.59 1021.71 1021.83 1021.93 1022.03 1022.11
1015.74 1016.18 1016.60 1016.99 1017.31 1017.57 1017.78 1017.94 1018.09 1018.24 1018.40 1018.57 1018.74 1018.91 1019.05 1019.13 1019.16 1019.13 1019.04 1018.93 1018.81 1018.71 1018.66 1018.66 1018.73 1018.87 1019.07 1019.31 1019.57 1019.85 1020.12 1020.37 1020.59 1020.78 1020.94 1021.07 1021.17 1021.25 1021.31 1021.37 1021.42 1021.47 1021.53
1015.57 1016.02 1016.46 1016.87 1017.22 1017.51 1017.73 1017.90 1018.04 1018.18 1018.32 1018.48 1018.66 1018.83 1018.99 1019.11 1019.17 1019.17 1019.10 1018.99 1018.85 1018.71 1018.61 1018.55 1018.56 1018.64 1018.80 1019.01 1019.27 1019.55 1019.84 1020.11 1020.35 1020.55 1020.70 1020.81 1020.88 1020.92 1020.94 1020.94 1020.94 1020.96 1020.98
1015.37 1015.83 1016.30 1016.73 1017.12 1017.44 1017.69 1017.88 1018.03 1018.16 1018.29 1018.44 1018.60 1018.77 1018.94 1019.07 1019.15 1019.17 1019.12 1019.01 1018.85 1018.68 1018.53 1018.41 1018.36 1018.38 1018.49 1018.67 1018.92 1019.20 1019.50 1019.79 1020.05 1020.27 1020.43 1020.54 1020.60 1020.62 1020.60 1020.57 1020.54 1020.52 1020.52
1015.13 1015.61 1016.09 1016.56 1016.99 1017.35 1017.65 1017.88 1018.05 1018.19 1018.31 1018.44 1018.59 1018.74 1018.89 1019.02 1019.11 1019.14 1019.09 1018.98 1018.82 1018.63 1018.43 1018.26 1018.15 1018.11 1018.17 1018.31 1018.52 1018.80 1019.10 1019.40 1019.68 1019.92 1020.11 1020.24 1020.30 1020.32 1020.30 1020.26 1020.21 1020.18 1020.17
1014.86 1015.35 1015.87 1016.37 1016.84 1017.26 1017.61 1017.88 1018.09 1018.24 1018.37 1018.48 1018.60 1018.73 1018.86 1018.98 1019.06 1019.09 1019.05 1018.95 1018.78 1018.57 1018.35 1018.14 1017.97 1017.88 1017.88 1017.96 1018.13 1018.37 1018.66 1018.96 1019.25 1019.51 1019.71 1019.86 1019.95 1019.99 1019.99 1019.96 1019.93 1019.90 1019.88
1014.59 1015.10 1015.64 1016.18 1016.69 1017.16 1017.57 1017.89 1018.13 1018.30 1018.43 1018.54 1018.64 1018.74 1018.84 1018.94 1019.02 1019.05 1019.02 1018.93 1018.78 1018.57 1018.34 1018.10 1017.89 1017.74 1017.67 1017.69 1017.80 1017.98 1018.22 1018.49 1018.77 1019.02 1019.24 1019.40 1019.52 1019.59 1019.62 1019.62 1019.61 1019.59 1019.58
1014.37 1014.89 1015.44 1016.01 1016.56 1017.07 1017.52 1017.88 1018.16 1018.36 1018.50 1018.59 1018.68 1018.76 1018.84 1018.93 1019.00 1019.05 1019.04 1018.98 1018.85 1018.66 1018.43 1018.18 1017.95 1017.75 1017.61 1017.55 1017.58 1017.68 1017.84 1018.04 1018.27 1018.49 1018.69 1018.85 1018.98 1019.07 1019.13 1019.16 1019.18 1019.19 1019.19
1014.24 1014.76 1015.31 1015.89 1016.45 1016.99 1017.47 1017.87 1018.17 1018.39 1018.53 1018.63 1018.70 1018.77 1018.85 1018.93 1019.02 1019.09 1019.12 1019.10 1019.01 1018.86 1018.65 1018.41 1018.15 1017.91 1017.71 1017.57 1017.49 1017.49 1017.55 1017.65 1017.79 1017.93 1018.08 1018.21 1018.32 1018.40 1018.47 1018.53 1018.57 1018.60 1018.63
1014.20 1014.71 1015.26 1015.83 1016.40 1016.94 1017.43 1017.84 1018.16 1018.39 1018.53 1018.63 1018.70 1018.77 1018.84 1018.94 1019.05 1019.15 1019.22 1019.25 1019.22 1019.12 1018.95 1018.72 1018.46 1018.19 1017.93 1017.71 1017.54 1017.42 1017.35 1017.33 1017.35 1017.39 1017.45 1017.50 1017.56 1017.61 1017.67 1017.72 1017.77 1017.82 1017.86
1014.25 1014.75 1015.27 1015.82 1016.38 1016.91 1017.39 1017.80 1018.12 1018.34 1018.49 1018.59 1018.66 1018.73 1018.81 1018.92 1019.05 1019.19 1019.31 1019.39 1019.42 1019.37 1019.24 1019.04 1018.79 1018.50 1018.20 1017.92 1017.66 1017.43 1017.25 1017.10 1016.98 1016.90 1016.83 1016.78 1016.75 1016.74 1016.75 1016.77 1016.82 1016.87 1016.92
1014.33 1014.81 1015.32 1015.84 1016.37 1016.88 1017.34 1017.73 1018.03 1018.25 1018.40 1018.49 1018.56 1018.64 1018.73 1018.86 1019.01 1019.17 1019.33 1019.45 1019.51 1019.51 1019.42 1019.25 1019.02 1018.74 1018.42 1018.10 1017.78 1017.47 1017.18 1016.92 1016.68 1016.47 1016.27 1016.10 1015.96 1015.86 1015.79 1015.77 1015.78 1015.82 1015.88
1014.37 1014.85 1015.34 1015.84 1016.35 1016.83 1017.26 1017.62 1017.90 1018.11 1018.25 1018.34 1018.41 1018.49 1018.59 1018.72 1018.88 1019.05 1019.22 1019.36 1019.45 1019.47 1019.41 1019.28 1019.07 1018.81 1018.50 1018.17 1017.83 1017.48 1017.13 1016.78 1016.44 1016.11 1015.80 1015.51 1015.26 1015.05 1014.90 1014.80 1014.77 1014.78 1014.83
1014.31 1014.79 1015.27 1015.76 1016.25 1016.70 1017.10 1017.45 1017.71 1017.91 1018.04 1018.13 1018.21 1018.29 1018.39 1018.51 1018.66 1018.83 1018.98 1019.12 1019.20 1019.23 1019.18 1019.07 1018.89 1018.66 1018.38 1018.08 1017.75 1017.39 1017.03 1016.64 1016.25 1015.84 1015.44 1015.06 1014.70 1014.39 1014.15 1013.97 1013.87 1013.84 1013.87
1014.11 1014.60 1015.08 1015.57 1016.03 1016.47 1016.86 1017.18 1017.44 1017.63 1017.77 1017.87 1017.96 1018.04 1018.14 1018.26 1018.39 1018.52 1018.65 1018.74 1018.80 1018.81 1018.76 1018.65 1018.50 1018.30 1018.07 1017.81 1017.52 1017.21 1016.86 1016.49 1016.08 1015.64 1015.19 1014.74 1014.31 1013.92 1013.59 1013.34 1013.18 1013.09 1013.08
1013.76 1014.25 1014.74 1015.22 1015.68 1016.11 1016.49 1016.81 1017.08 1017.29 1017.45 1017.58 1017.68 1017.78 1017.88 1017.99 1018.10 1018.19 1018.27 1018.32 1018.33 1018.29 1018.22 1018.10 1017.96 1017.79 1017.61 1017.41 1017.18 1016.93 1016.64 1016.30 1015.92 1015.49 1015.03 1014.55 1014.08 1013.63 1013.24 1012.93 1012.70 1012.56 1012.49
1013.28 1013.77 1014.26 1014.73 1015.19 1015.62 1016.00 1016.34 1016.63 1016.88 1017.08 1017.25 1017.40 1017.53 1017.65 1017.76 1017.85 1017.91 1017.94 1017.93 1017.88 1017.80 1017.69 1017.55 1017.40 1017.25 1017.10 1016.95 1016.78 1016.59 1016.36 1016.09 1015.75 1015.36 1014.92 1014.44 1013.96 1013.50 1013.07 1012.71 1012.43 1012.22 1012.09
1012.73 1013.21 1013.68 1014.14 1014.60 1015.02 1015.42 1015.79 1016.12 1016.42 1016.68 1016.92 1017.13 1017.31 1017.47 1017.60 1017.68 1017.73 1017.72 1017.67 1017.57 1017.43 1017.28 1017.11 1016.94 1016.79 1016.65 1016.52 1016.39 1016.25 1016.07 1015.85 1015.56 1015.22 1014.82 1014.37 1013.91 1013.44 1013.01 1012.62 1012.29 1012.04 1011.84
Thickness
5749 5748 5745 5744 5745 5744 5742 5742 5742 5740 5739 5738 5739 5737 5737 5735 5734 5733 5726 5721 5719 5718 5716 5715 5714 5712 5711 5710 5708 5707 5706 5705 5704 5703 5702 5702 5701 5700 5699 5699 5698 5697 5697
5747 5746 5744 5743 5744 5743 5743 5742 5741 5739 5739 5738 5737 5736 5735 5735 5733 5731 5729 5723 5720 5718 5716 5715 5713 5712 5711 5709 5708 5707 5705 5704 5703 5702 5702 5701 5700 5699 5698 5698 5697 5697 5696
5745 5745 5745 5743 5743 5741 5739 5739 5739 5739 5738 5738 5736 5736 5735 5733 5732 5730 5729 5727 5723 5719 5717 5715 5714 5712 5711 5709 5708 5707 5705 5704 5703 5702 5701 5700 5700 5699 5698 5697 5697 5696 5695
5743 5743 5744 5744 5741 5741 5741 5739 5740 5739 5738 5737 5735 5736 5735 5732 5731 5730 5729 5727 5725 5723 5719 5716 5714 5713 5711 5710 5708 5707 5705 5704 5703 5702 5701 5700 5699 5698 5698 5697 5696 5696 5695
5743 5743 5743 5742 5741 5742 5742 5742 5741 5740 5737 5735 5736 5734 5735 5733 5731 5731 5729 5727 5725 5724 5722 5717 5715 5713 5712 5710 5708 5707 5705 5704 5703 5702 5701 5700 5699 5698 5697 5697 5696 5695 5694
5742 5743 5742 5740 5741 5742 5741 5740 5738 5737 5736 5736 5738 5735 5734 5734 5732 5731 5730 5729 5726 5725 5724 5722 5718 5715 5713 5711 5709 5707 5705 5704 5703 5702 5701 5700 5700 5698 5698 5697 5696 5695 5694
5742 5741 5743 5740 5740 5741 5739 5739 5738 5736 5736 5736 5733 5731 5732 5734 5733 5732 5731 5731 5729 5727 5724 5722 5721 5719 5715 5711 5709 5707 5706 5704 5703 5702 5701 5700 5699 5698 5697 5696 5695 5694 5694
5741 5741 5741 5741 5740 5739 5737 5737 5736 5736 5737 5736 5732 5728 5726 5728 5730 5735 5733 5730 5730 5728 5726 5724 5721 5718 5718 5716 5711 5709 5706 5705 5703 5702 5702 5700 5699 5698 5697 5696 5695 5694 5693
5741 5741 5740 5741 5739 5740 5738 5736 5736 5733 5733 5735 5736 5732 5726 5724 5729 5733 5732 5732 5729 5728 5728 5726 5723 5721 5718 5717 5714 5710 5708 5706 5704 5703 5702 5700 5699 5698 5696 5695 5694 5693 5692
5741 5740 5739 5739 5738 5740 5738 5738 5738 5736 5733 5732 5733 5733 5733 5733 5727 5726 5731 5733 5731 5728 5729 5729 5727 5723 5720 5718 5715 5712 5709 5707 5705 5703 5702 5700 5699 5697 5696 5695 5694 5693 5691
5741 5741 5739 5738 5737 5738 5738 5737 5736 5735 5736 5733 5733 5733 5732 5731 5732 5727 5725 5729 5731 5732 5731 5729 5727 5725 5722 5720 5717 5714 5710 5708 5706 5704 5702 5701 5699 5697 5696 5694 5693 5692 5691
5742 5741 5740 5738 5738 5738 5736 5736 5735 5735 5735 5734 5734 5735 5733 5731 5730 5730 5727 5726 5728 5731 5732 5731 5729 5726 5724 5722 5719 5715 5711 5709 5706 5704 5702 5701 5699 5697 5696 5694 5693 5692 5691
5742 5741 5741 5739 5738 5736 5736 5736 5735 5736 5734 5732 5732 5734 5735 5735 5735 5733 5730 5729 5728 5731 5730 5731 5731 5728 5726 5724 5720 5715 5712 5709 5707 5705 5703 5701 5699 5697 5695 5694 5692 5691 5690
5744 5742 5740 5738 5737 5736 5736 5735 5736 5735 5733 5732 5733 5732 5733 5734 5735 5734 5732 5729 5725 5727 5729 5729 5732 5729 5727 5724 5721 5715 5713 5710 5707 5705 5702 5700 5698 5697 5695 5694 5692 5691 5689
5743 5741 5739 5738 5737 5736 5735 5734 5735 5733 5733 5733 5733 5732 5731 5734 5734 5734 5733 5731 5725 5721 5724 5727 5728 5729 5725 5722 5718 5716 5714 5711 5708 5705 5702 5700 5698 5696 5695 5693 5691 5690 5688
5742 5740 5739 5738 5736 5735 5734 5733 5733 5732 5731 5731 5731 5730 5729 5733 5733 5732 5731 5730 5729 5725 5722 5728 5726 5728 5723 5722 5717 5715 5713 5710 5707 5705 5702 5700 5698 5696 5694 5692 5691 5689 5687
5740 5738 5737 5736 5735 5734 5733 5732 5733 5732 5730 5730 5729 5729 5727 5727 5729 5730 5729 5728 5726 5724 5720 5724 5726 5724 5718 5716 5716 5714 5713 5710 5710 5705 5702 5699 5697 5695 5693 5692 5690 5688 5686
5739 5737 5736 5735 5734 5734 5733 5731 5730 5731 5729 5728 5727 5727 5726 5726 5723 5724 5725 5724 5724 5722 5718 5716 5719 5719 5716 5714 5713 5710 5712 5712 5710 5706 5702 5699 5696 5694 5692 5690 5688 5687 5685
5738 5737 5735 5734 5733 5733 5732 5731 5730 5729 5728 5727 5726 5725 5724 5722 5720 5721 5719 5721 5721 5720 5717 5715 5715 5716 5715 5714 5710 5709 5710 5707 5707 5707 5702 5698 5696 5693 5691 5689 5687 5685 5683
5737 5735 5734 5733 5733 5732 5731 5730 5729 5727 5726 5725 5725 5724 5723 5721 5719 5718 5717 5715 5715 5714 5713 5711 5711 5712 5710 5710 5706 5705 5705 5706 5705 5705 5703 5699 5695 5692 5690 5688 5685 5683 5680
5737 5735 5734 5733 5732 5731 5731 5730 5728 5726 5724 5722 5722 5721 5721 5720 5718 5715 5716 5714 5712 5709 5709 5708 5707 5707 5707 5704 5702 5703 5701 5701 5702 5701 5699 5698 5696 5694 5692 5687 5684 5680 5677
5735 5733 5732 5732 5731 5731 5729 5726 5725 5725 5723 5721 5719 5719 5719 5716 5714 5710 5709 5707 5706 5705 5704 5702 5703 5701 5699 5700 5699 5697 5696 5694 5693 5698 5693 5692 5692 5690 5689 5686 5683 5678 5673
5733 5731 5731 5730 5729 5728 5725 5723 5721 5721 5721 5720 5719 5717 5718 5719 5714 5712 5707 5703 5701 5699 5697 5697 5698 5697 5696 5696 5692 5691 5689 5686 5686 5689 5686 5684 5686 5684 5684 5682 5677 5672 5667
5732 5730 5729 5729 5728 5726 5722 5720 5717 5717 5718 5718 5717 5716 5714 5714 5712 5709 5707 5705 5702 5700 5696 5693 5693 5693 5691 5690 5687 5684 5683 5681 5680 5681 5679 5675 5678 5678 5679 5675 5671 5666 5661
5730 5730 5729 5728 5726 5725 5720 5717 5713 5715 5715 5715 5715 5714 5712 5710 5707 5703 5701 5699 5698 5697 5694 5690 5688 5686 5682 5680 5678 5678 5677 5674 5674 5676 5676 5670 5669 5669 5669 5668 5665 5659 5654
5729 5729 5728 5727 5725 5724 5719 5715 5711 5714 5714 5713 5711 5710 5706 5704 5701 5698 5697 5695 5692 5692 5690 5688 5682 5680 5677 5675 5671 5669 5669 5667 5667 5666 5668 5662 5660 5658 5658 5660 5656 5651 5646